Location: Moena
(46.3667°N, 11.6500°E)
Time: 14:15:49
(UTC+00:00)

Cosmos 2333 Rocket - Pass Details

Date: 25 June 2021
Orbit: 841 x 861 km, 70.8° (Epoch: 26 July)

Event Time Altitude Azimuth Distance (km) Brightness Sun altitude
Rises 02:35:06 0° 340° (NNW) 3,423 5.7 -7.0°
Reaches altitude 10° 02:39:47 10° 15° (NNE) 2,478 5.7 -6.4°
Maximum altitude 02:41:25 11° 32° (NNE) 2,392 6.1 -6.2°
Drops below altitude 10° 02:43:03 10° 49° (NE) 2,472 6.5 -6.0°
Sets 02:47:40 0° 84° (E) 3,400 6.3 -5.4°
